Бобр

Беларусь     54°20′30″N   29°16′28″E
темп.,
°C
ветер,
м/с
пор.,
м/с
влажн.,
%
обл.,
%
осадки,
мм/ч
давл.,
гПа
погр.,
м
16 июня, ср
ср1600:00+14сз2593100 0.0 1015104
03:00+14сз259858 0.0 1015112
06:00+14ссз379518 0.0 1015242
09:00+17с34691 0.0 1016522
12:00+21ссв33545 0.0 10171519
15:00+22с44485 0.0 10171780
18:00+21ссв455349 0.0 10181479
21:00+16с347461 0.0 101959
17 июня, чт
чт1700:00+12ссв33765 0.0 102153
03:00+11св33745 0.0 102240
06:00+12св25790 0.0 102398
09:00+18всв23610 0.0 1024374
12:00+22св22480 0.0 10241197
15:00+24в33460 0.0 10241539
18:00+23в33530 0.0 10241471
21:00+18вюв22785 0.0 102515
18 июня, пт
пт1800:00+15вюв228476 0.0 102614
03:00+13вюв228594 0.0 102623
06:00+14юв238518 0.0 102774
09:00+20юв24643 0.0 1026438
12:00+24юв444946 0.0 10261346
15:00+25юв444914 0.0 10261449
18:00+24юв44558 0.0 10251231
21:00+19юв34795 0.0 102561
19 июня, сб
сб1900:00+15ююв34905 0.0 102669
03:00+14ююв23950 0.0 102655
06:00+15ююв24920 0.0 1026104
09:00+21ююв35700 0.0 1026612
12:00+24юв45540 0.0 10251232
15:00+25юв55521 0.0 10231459
18:00+24юв455981 0.0 10221112
21:00+20юв38810 0.0 1023184
20 июня, вс
вс2000:00+16ююв37921 0.0 1023128
03:00+14ююв36935 0.0 1023114
06:00+15ююв25910 0.0 1023130
09:00+21ююв34680 0.0 1023566
12:00+25юв34555 0.0 10221275
15:00+27юв355016 0.0 10211826
18:00+26ю245731 0.1 10201128
21:00+21юв358716 0.6 102096